Flag for Switzerland Weather past 2 weeks in Altdorf, Uri, Switzerland

Now
63 °F

Mild.


Feels Like: 63 °F
Forecast: 60 / 71 °F
Wind: 5 mph from North

Location: Altdorf

Current Time: Jul 25, 2014 at 10:49:31 PM

Latest Report: Jul 25, 2014 at 10:00 PM


Visibility: N/A

Pressure: 29.94 "Hg

Humidity: 91%

Dew point: 61 °F

Location of AltdorfLocation

Historic Weather in Altdorf — Graph

°F

Altdorf temperature yesterday

Maximum temperature yesterday: 74 °F (at 7:00 PM)
Minimum temperature yesterday: 61 °F (at 11:00 PM)
Average temperature yesterday: 66 °F

Past Weeks' High & Low Weather Summary

 TemperatureHumidityPressure
High85 °F (Jul 20, 2:00 AM)96% (Jul 12, 3:00 AM)30.20 "Hg (Jul 12, 3:00 AM)
Low56 °F (Jul 25, 6:00 AM)31% (Jul 19, 8:00 PM)29.75 "Hg (Jul 20, 3:00 AM)
Average67 °F77%29.96 "Hg
* Reported Jul 10 9:00 PM — Jul 25 9:00 PM, Altdorf, Weather by CustomWeather, © 2014

Note: Actual official high and low records may vary slightly from our data, if they occured in-between our weather recording intervals... More about our weather records

Advertising

Altdorf weather history for previous 24 hours

 ConditionsComfort  
Time TempWeatherWind HumidityBarometerVisibility
9:00 PM
Jul 25
64 °FMild.3 mph89%29.90 "HgN/A
8:00 PM68 °FOvercast.9 mph74%29.85 "Hg12 mi
7:00 PM74 °FMild.5 mph53%29.81 "HgN/A
6:00 PM77 °FMild.3 mph50%29.79 "HgN/A
5:00 PM76 °FScattered clouds.6 mph50%29.80 "Hg16 mi
4:00 PM77 °FMild.8 mph44%29.82 "HgN/A
3:00 PM78 °FWarm.7 mph45%29.83 "HgN/A
2:00 PM76 °FMild.7 mph53%29.85 "HgN/A
1:00 PM74 °FMild.5 mph58%29.87 "HgN/A
12:00 PM72 °FMild.2 mph55%29.90 "HgN/A
11:00 AM69 °FPassing clouds.5 mph67%29.91 "Hg17 mi
10:00 AM67 °FMild.5 mph71%29.93 "HgN/A
9:00 AM65 °FMild.No wind79%29.93 "HgN/A
8:00 AM58 °FSunny.1 mph89%29.96 "Hg12 mi
7:00 AM58 °FCool.1 mph88%29.96 "HgN/A
6:00 AM56 °FCool.1 mph94%29.96 "HgN/A
5:00 AM57 °FPassing clouds.2 mph92%29.95 "Hg12 mi
4:00 AM57 °FCool.1 mph92%29.95 "HgN/A
3:00 AM59 °FCool.2 mph89%29.94 "HgN/A
2:00 AM60 °FCool.1 mph87%29.94 "HgN/A
1:00 AM60 °FCool.1 mph90%29.95 "HgN/A
12:00 AM61 °FCool.1 mph88%29.94 "HgN/A
11:00 PM
Jul 24
61 °FPassing clouds.2 mph88%29.94 "Hg12 mi
10:00 PM64 °FMild.1 mph82%29.91 "HgN/A
Weather by CustomWeather, © 2014

See weather overviewHow to use our weather pages